Wind_Speed
83 83 83 82 81 81 80 80 79 78 78 77 77 77 76 75 74 73 73 72 72 72 72 71 71 71 70 70 70 71 71 71 71 71 71 71 72 72 72 72 72 72 72 71 71 72 72 72 72 72 72 71 71 70 70 70 69 69 69 68 66 66 67 70 70 68 66 65 64 63 62 62 62 61 61 62 63 63 62 60 59 59 60 61 61 61
83 83 83 82 81 81 80 80 80 79 79 79 79 78 78 77 76 75 74 73 73 72 72 72 71 70 70 70 70 70 70 70 70 71 71 71 71 72 72 72 73 74 74 74 74 74 74 74 74 74 74 73 73 73 73 73 72 72 72 72 72 72 72 73 72 70 68 66 66 65 64 64 63 63 63 65 66 67 66 64 62 61 62 62 63 63
83 82 82 82 81 80 80 79 79 79 79 79 79 79 79 78 78 77 76 75 74 74 73 73 72 71 70 70 70 70 70 70 70 70 70 71 71 71 72 72 73 73 74 74 75 75 76 76 76 75 75 75 75 75 75 75 74 74 74 73 73 73 73 73 71 69 68 67 66 66 66 65 65 65 66 67 69 70 70 69 67 65 65 65 65 65
81 80 81 81 81 80 79 79 78 78 78 79 79 79 80 79 79 79 78 77 76 75 75 74 73 72 71 71 70 70 70 70 70 70 70 70 70 70 71 72 72 73 73 74 74 75 76 76 76 76 76 76 77 77 76 76 75 74 74 73 72 72 72 71 70 68 67 67 67 67 67 67 67 67 68 69 71 72 72 72 71 69 69 68 68 67
79 79 79 79 79 79 79 79 79 78 79 78 78 79 79 79 80 80 79 78 78 77 76 75 74 73 73 72 71 71 70 70 70 69 69 69 69 69 70 71 71 72 72 73 74 74 75 75 75 75 76 76 77 77 76 76 75 75 74 73 73 72 72 72 71 70 69 69 69 69 70 70 70 70 71 71 72 73 73 74 73 72 71 71 70 69
77 77 78 77 77 77 78 78 78 78 78 78 78 78 79 79 80 80 80 79 79 78 77 76 75 75 74 73 73 72 71 71 70 70 69 69 69 69 69 70 70 71 71 72 72 73 73 74 74 75 75 76 76 76 76 76 75 75 75 75 74 74 74 74 74 73 73 73 73 73 73 73 73 73 73 73 74 74 74 74 74 73 73 72 72 71
76 76 76 75 75 76 76 76 77 77 77 78 78 78 78 78 79 79 80 80 80 79 78 77 76 75 75 74 74 73 72 71 71 70 70 69 69 69 69 70 70 70 70 71 71 72 72 73 74 74 75 75 75 75 75 75 75 76 76 76 76 76 76 76 76 76 76 76 76 76 76 76 75 75 75 75 75 75 75 74 74 74 73 73 72 71
73 73 74 73 73 73 73 74 75 76 76 76 76 76 77 77 78 78 79 79 79 79 78 77 76 76 75 75 74 73 73 72 72 71 71 70 70 70 70 70 70 70 70 70 70 71 72 72 73 74 74 74 75 75 75 75 75 75 76 76 76 76 76 77 77 77 77 77 77 77 76 76 76 76 76 76 75 75 75 74 74 74 73 73 72 72
70 71 71 71 71 71 71 72 72 73 73 74 74 74 74 75 76 77 77 77 77 77 77 76 76 75 75 75 74 73 73 73 72 72 71 71 71 71 71 71 71 71 70 70 70 71 71 72 72 73 73 74 74 74 74 75 75 75 75 75 75 75 76 76 76 76 76 76 76 76 76 76 76 76 75 75 75 75 75 74 74 73 73 73 72 72
67 68 68 69 69 69 69 69 70 71 71 71 72 72 73 72 73 74 74 74 75 76 76 75 75 75 75 74 74 73 73 73 73 72 72 72 72 72 72 72 72 72 71 71 71 71 71 72 72 72 73 73 73 74 74 74 74 75 75 75 75 75 75 75 75 75 75 75 75 75 75 75 75 75 75 75 75 74 74 74 73 73 73 72 72 71
64 65 65 66 67 67 68 68 69 69 69 70 70 71 71 71 70 70 70 71 73 74 74 74 74 74 74 73 73 73 73 73 72 72 72 73 73 73 73 73 73 72 72 72 72 72 72 72 73 73 73 73 74 74 74 74 75 75 75 75 75 75 75 75 75 75 75 75 75 75 75 75 75 75 74 74 74 74 73 73 73 72 72 71 71 70
60 62 62 63 63 64 65 66 67 67 67 67 68 68 68 69 69 68 68 69 70 71 72 73 73 73 72 72 73 73 73 72 72 72 72 72 73 73 73 73 73 73 72 72 72 73 73 73 74 74 74 74 75 75 75 75 75 75 75 75 75 75 75 75 75 75 75 75 75 75 75 74 74 74 74 74 73 73 73 72 72 71 71 70 70 69
56 57 59 59 60 61 62 63 64 64 65 65 65 66 66 67 67 66 66 67 69 69 70 71 71 71 71 72 72 72 72 72 72 72 72 72 72 72 72 72 72 72 72 72 72 73 73 74 74 75 75 75 75 76 76 76 76 76 76 76 75 75 75 75 75 75 75 75 74 74 74 74 74 74 74 73 73 72 72 72 71 70 70 69 69 68
52 53 54 55 57 58 59 60 60 61 62 63 64 64 64 64 64 64 64 66 67 68 68 68 69 70 70 70 71 71 71 71 71 71 71 71 71 71 71 71 71 72 72 72 72 73 73 74 74 75 75 75 75 75 75 75 75 76 76 75 75 75 75 75 75 75 75 74 74 74 74 74 74 74 73 73 73 72 72 71 71 70 70 69 68 68
50 50 50 52 53 54 55 56 57 58 59 60 61 61 61 61 61 61 62 64 65 65 66 66 67 68 68 69 69 70 70 70 70 70 70 70 71 71 70 70 71 71 71 71 72 72 73 73 74 74 75 75 75 75 75 75 75 75 75 75 75 75 75 75 75 75 75 75 75 74 74 74 74 74 74 73 73 72 72 71 71 70 69 69 68 68
51 50 50 51 52 52 53 54 54 55 56 57 57 57 58 58 59 60 61 61 62 63 63 64 65 66 67 68 68 69 69 69 69 70 69 70 70 70 70 69 70 70 71 71 71 72 72 73 73 74 74 74 74 74 74 74 74 75 75 75 75 75 75 75 75 75 75 75 75 75 75 75 74 74 74 73 73 72 72 71 71 70 69 69 68 68
52 51 51 51 51 52 52 53 53 54 54 54 54 55 56 57 58 58 58 59 60 60 61 62 63 64 65 66 67 67 68 68 69 69 69 69 70 70 70 69 69 70 70 70 71 71 72 72 72 73 73 73 73 74 74 74 74 74 75 75 75 75 75 75 76 76 76 75 75 75 75 75 75 74 74 74 73 72 72 71 70 70 69 69 68 68
53 52 52 51 51 51 52 52 52 53 53 53 53 54 55 56 56 57 57 58 58 59 60 61 62 63 64 64 65 66 67 67 67 68 68 69 70 71 70 69 70 70 70 70 71 71 71 72 72 73 73 73 73 73 73 74 74 74 75 75 75 75 75 76 76 76 76 76 76 76 76 75 75 75 74 73 73 72 71 71 70 70 69 68 68 67
53 52 51 51 51 51 51 52 52 53 53 53 54 54 54 55 56 57 57 58 59 59 59 60 60 61 63 64 65 66 66 65 66 67 67 68 70 70 70 69 70 70 70 70 71 71 71 71 72 72 72 72 73 73 73 74 74 74 75 75 75 75 75 76 76 76 76 76 76 76 76 75 75 74 74 73 72 72 71 70 70 69 69 68 68 67
52 52 51 51 51 51 51 52 52 53 53 54 54 54 55 56 56 57 58 59 59 59 59 59 60 61 62 63 64 65 65 65 65 66 67 68 69 69 70 69 70 70 70 71 71 71 71 71 71 72 72 72 72 73 73 74 74 74 74 74 75 75 75 75 75 76 76 76 76 75 75 75 74 73 73 72 72 71 70 70 69 69 68 68 68 68
52 52 51 51 51 51 51 52 52 52 52 53 54 54 55 56 57 57 58 59 59 59 60 60 60 61 62 62 63 64 64 64 65 66 66 67 67 68 69 69 69 70 70 71 71 71 70 70 71 71 71 71 72 72 73 73 73 73 74 74 74 74 74 74 74 75 75 75 74 74 74 74 73 73 72 72 71 70 70 69 69 68 68 68 68 68
52 52 51 51 50 51 51 51 51 51 52 52 53 54 55 56 57 57 58 59 59 59 60 61 61 61 61 61 62 64 64 64 65 65 66 65 66 67 68 68 68 69 70 70 70 70 70 70 70 70 71 71 71 71 71 72 72 72 72 73 73 73 73 73 73 73 73 73 73 73 73 72 72 72 71 71 70 70 69 69 68 68 68 68 68 68
52 52 51 50 50 50 50 50 50 51 51 52 53 54 55 55 56 57 58 58 59 59 60 61 61 61 61 62 62 63 64 64 65 65 65 64 65 67 67 67 67 68 69 70 70 69 69 69 69 70 70 70 70 70 71 71 71 71 71 71 71 71 71 72 72 72 72 72 72 72 72 71 71 71 70 70 70 69 69 68 68 68 68 68 68 67
52 51 50 50 50 49 49 49 49 50 50 51 52 53 54 54 55 56 57 58 58 59 59 60 60 60 61 62 62 63 63 64 64 64 63 64 65 66 65 65 65 67 69 69 68 67 67 68 69 69 69 69 70 70 70 70 70 70 70 70 70 70 70 70 71 71 71 71 71 71 71 71 70 70 70 69 69 68 68 68 67 67 67 67 67 67
51 50 50 49 49 48 48 48 48 49 49 50 51 52 53 54 55 56 56 57 57 58 58 58 58 59 60 61 61 62 62 63 63 62 62 63 63 63 62 62 63 65 68 68 67 66 66 67 68 68 68 68 69 69 69 69 69 69 69 69 69 69 69 70 70 70 70 70 70 70 70 70 69 69 69 68 68 67 67 67 66 66 66 66 66 66
51 50 49 48 48 47 47 47 47 47 48 49 50 51 52 53 54 54 54 55 56 56 56 56 56 57 57 57 58 59 60 60 60 61 61 61 61 60 59 59 60 62 65 66 66 65 65 66 67 67 67 67 68 68 68 68 68 68 68 68 68 68 69 69 69 69 69 69 69 69 69 69 68 68 68 67 67 66 66 66 66 66 66 66 66 66
50 49 49 48 47 46 46 45 45 45 46 46 48 49 50 51 52 52 51 53 55 55 56 56 56 56 56 55 55 56 57 57 57 58 59 60 60 59 58 57 57 59 62 64 64 64 64 65 66 66 66 67 67 67 67 67 67 67 67 68 68 67 68 68 68 68 68 68 68 68 67 67 67 67 66 66 66 66 66 65 65 66 66 66 66 66
49 49 48 47 46 45 44 44 43 43 43 44 45 47 48 50 51 52 53 53 53 54 55 57 58 59 58 57 57 57 56 56 56 56 57 58 58 59 59 58 57 58 60 62 63 63 63 64 65 65 65 65 66 66 66 66 66 66 66 66 66 66 66 66 66 65 65 65 65 65 65 65 65 65 65 65 65 65 65 65 65 65 65 65 65 65
47 47 47 46 46 45 44 43 42 42 42 43 44 45 47 49 50 52 52 52 52 53 54 57 59 61 61 61 60 59 58 57 57 57 57 57 58 59 59 58 58 59 60 61 61 62 62 63 64 64 63 63 64 64 64 64 64 64 64 64 64 63 63 63 63 63 63 63 63 63 63 63 63 63 63 63 63 63 64 64 64 64 65 64 64 64
45 46 46 46 46 45 45 44 44 43 43 43 44 45 46 48 49 51 52 52 52 52 54 56 58 60 62 63 63 62 61 61 60 59 58 58 58 60 60 59 59 59 60 60 60 61 61 62 62 61 61 61 61 61 61 61 61 61 61 61 61 60 60 60 60 59 59 59 60 60 60 60 60 60 60 61 61 61 62 62 62 63 63 63 63 63
44 45 46 46 46 47 47 46 46 45 45 45 45 46 47 48 49 51 51 52 53 54 55 56 57 59 60 62 63 63 63 63 63 61 60 59 60 61 60 59 59 60 60 60 60 60 61 61 60 58 58 57 57 57 57 57 58 58 58 58 57 57 57 57 56 56 56 56 56 56 56 56 57 57 57 57 58 58 59 59 60 60 61 61 61 61
43 44 45 46 46 47 48 48 48 48 47 47 47 48 48 49 50 51 52 53 54 55 55 56 57 58 59 61 62 63 64 64 63 62 61 61 62 62 60 59 59 60 60 59 59 59 59 59 58 56 55 55 55 55 55 55 56 56 56 55 54 54 54 54 53 53 53 53 53 54 53 53 53 54 54 54 55 55 56 57 57 58 59 59 59 60
43 44 44 45 46 47 48 48 48 49 49 49 49 49 49 49 49 50 51 53 54 55 56 57 58 58 59 60 61 62 63 63 62 62 61 61 61 61 60 59 59 59 59 58 58 58 58 57 56 55 55 54 55 55 55 55 55 55 54 53 52 52 52 51 51 51 51 52 52 51 51 51 51 51 52 52 53 53 54 55 56 57 57 58 58 59
44 44 45 45 46 47 47 48 48 49 49 50 50 50 50 49 49 49 50 51 53 54 56 57 58 58 59 60 61 61 62 62 62 61 60 60 60 59 59 58 58 58 57 57 56 56 57 56 56 55 55 55 56 56 56 56 55 54 52 51 50 50 50 50 50 50 51 51 51 50 50 50 50 50 51 51 52 53 53 54 55 56 56 57 58 58
45 45 45 46 46 47 47 48 48 49 49 50 50 50 50 50 49 49 49 49 50 52 53 55 56 56 57 58 58 59 59 59 59 59 58 58 58 58 57 57 57 57 56 56 56 56 56 56 56 56 56 56 56 56 56 55 54 53 51 50 49 49 49 49 50 50 51 50 50 50 50 50 50 50 51 51 52 53 53 54 55 55 56 56 57 58
44 44 44 45 45 46 46 47 48 48 49 49 50 50 50 50 49 49 48 48 48 49 50 51 52 53 54 54 55 55 55 56 56 55 55 55 55 55 55 56 56 56 55 55 55 55 56 56 56 55 55 55 55 55 55 54 52 51 50 49 49 49 49 50 50 51 51 51 50 50 50 50 50 50 51 52 52 53 54 54 55 55 56 56 57 57
42 43 43 43 44 44 45 46 47 48 48 49 49 50 50 49 49 49 48 48 47 47 47 48 49 49 50 51 52 52 52 52 53 53 53 53 54 54 55 55 55 55 55 55 55 55 55 55 54 54 53 53 53 53 53 52 51 50 50 50 49 49 50 51 51 51 51 51 51 51 51 51 51 51 52 52 52 53 53 54 55 55 55 56 57 57
41 42 42 42 42 43 44 45 46 47 48 48 49 49 49 49 48 48 48 47 47 47 46 47 47 47 48 48 49 50 50 51 51 52 52 53 53 54 54 55 55 55 55 55 55 54 53 53 52 52 51 51 51 51 50 50 50 50 50 50 50 50 51 51 52 52 52 52 52 52 52 52 52 52 52 52 53 53 53 54 55 55 55 56 56 57
41 41 41 42 42 42 43 44 45 46 47 48 48 49 49 48 48 48 47 47 47 47 47 47 47 47 48 48 49 49 50 50 51 51 52 52 53 54 54 55 54 54 54 54 53 52 52 51 51 50 50 50 49 49 50 50 50 50 50 50 50 51 52 52 52 52 52 53 53 53 53 53 52 52 53 53 53 53 54 54 54 54 55 55 56 56
41 41 41 42 42 42 43 43 44 45 46 47 48 48 48 48 48 48 48 48 48 48 48 48 48 48 49 49 50 50 51 51 51 51 52 52 53 53 53 53 53 53 52 52 51 51 50 50 50 49 49 49 49 49 49 50 50 50 50 50 51 52 53 53 53 53 53 53 53 53 53 53 53 53 53 53 54 54 54 54 54 54 54 54 55 55
42 42 42 42 42 42 43 43 44 44 45 46 47 48 48 48 49 49 49 50 50 50 50 50 50 50 50 50 51 51 51 51 51 51 52 52 52 52 52 52 51 51 50 50 50 49 49 49 49 49 49 49 49 50 50 50 51 51 51 51 52 53 53 53 53 53 53 53 53 53 53 53 53 53 53 54 54 54 54 54 54 54 54 54 54 54
44 43 43 43 43 43 43 44 44 45 46 46 47 48 48 49 49 50 51 51 51 52 52 51 51 51 51 51 51 51 51 51 51 51 51 51 51 51 51 50 50 49 49 49 49 48 48 48 49 49 49 49 49 50 50 51 51 51 52 52 53 53 53 53 53 53 53 52 52 52 52 52 52 53 53 53 54 54 54 54 53 53 53 53 54 54
46 45 45 44 44 44 45 45 46 46 47 47 48 48 49 49 50 51 52 52 52 53 53 52 52 52 52 52 52 52 51 51 51 51 51 51 50 50 50 50 49 49 48 48 48 48 48 48 48 49 49 49 49 50 50 51 51 52 52 53 53 53 53 53 53 52 52 52 52 52 52 52 52 52 53 53 53 53 53 53 52 52 52 52 53 53
48 47 47 46 46 46 47 47 48 48 49 49 49 50 50 50 51 52 52 53 53 53 53 53 53 52 52 52 52 52 51 51 51 51 51 51 50 50 50 49 49 49 48 48 48 48 48 48 48 48 49 49 49 50 51 51 51 52 52 52 53 53 53 52 52 51 51 52 52 51 51 51 52 52 52 52 52 52 52 51 51 51 51 51 51 51
50 49 49 49 49 49 50 50 50 50 50 51 51 51 51 51 52 53 53 53 53 54 53 53 53 53 52 52 52 51 51 51 51 51 51 51 50 50 50 50 49 49 49 49 48 48 48 48 48 48 48 49 49 50 50 50 51 51 51 51 52 52 52 52 51 51 51 52 51 51 51 51 51 51 51 51 51 51 50 50 49 49 49 49 49 49
52 52 52 52 52 52 53 52 52 52 52 52 52 52 52 52 53 53 54 54 54 54 53 53 53 53 52 52 51 51 51 51 50 50 50 50 50 50 50 49 49 49 49 49 49 48 48 48 48 48 48 48 49 49 49 49 49 49 50 50 50 50 50 50 50 51 51 51 51 51 51 51 51 51 51 50 49 49 48 48 47 47 47 47 47 47
56 56 55 55 55 55 54 54 54 53 53 53 53 53 53 53 53 54 54 54 54 54 53 53 53 52 52 51 51 51 51 50 50 50 49 49 49 49 49 49 49 49 49 49 49 48 48 48 48 48 48 48 48 48 48 48 48 48 48 48 48 49 49 49 50 50 50 51 51 51 51 51 50 50 49 49 48 47 47 46 46 45 45 45 45 45
59 59 58 58 57 57 56 55 55 54 54 54 53 53 53 53 53 54 54 54 54 54 53 53 52 52 52 51 51 50 50 50 49 49 48 48 48 48 48 48 48 48 48 48 48 48 48 48 48 47 47 47 47 47 47 47 47 47 47 47 47 48 48 49 49 49 50 50 51 51 50 50 50 49 48 47 47 46 46 45 45 44 44 44 44 43
60 60 59 59 58 57 56 56 55 55 54 54 53 53 53 53 54 54 54 54 54 53 53 53 52 52 51 51 50 50 50 49 49 48 48 47 47 47 47 46 46 46 47 47 47 47 47 47 47 46 46 46 46 47 46 46 46 46 46 47 47 48 48 49 49 49 50 50 50 50 50 49 49 48 47 46 46 46 45 45 44 44 43 43 42 42
58 58 58 57 56 56 55 55 54 54 54 53 53 53 53 53 53 54 54 54 53 53 53 52 52 51 51 51 50 50 49 49 48 47 47 46 46 46 45 45 45 45 45 45 45 45 45 45 45 45 45 45 46 46 46 46 46 47 47 47 48 48 48 48 49 49 49 49 49 49 49 48 47 46 46 45 45 45 44 44 44 43 42 42 41 41
56 56 56 55 54 54 53 53 53 53 53 53 52 53 53 53 53 53 53 53 53 53 52 52 51 51 51 50 50 49 49 48 47 47 46 45 45 45 45 44 44 44 44 44 44 44 44 45 45 45 45 45 45 46 47 47 47 47 48 48 48 48 48 48 48 48 48 48 48 48 47 47 46 45 45 44 44 43 43 43 42 41 40 40 39 39
Wind_Direction
238 238 238 238 238 238 238 238 238 239 239 238 238 238 238 238 238 238 239 239 239 239 238 238 238 238 238 238 238 238 238 238 238 238 238 238 239 239 239 239 238 238 238 238 238 239 239 239 239 240 241 241 241 240 239 238 238 237 236 237 238 241 244 247 248 249 248 248 248 247 247 246 246 245 245 245 246 247 248 250 250 250 250 250 251 252
238 238 238 238 238 238 238 238 238 239 239 239 239 239 238 238 238 239 239 239 239 239 239 239 239 239 239 238 238 238 238 239 239 239 239 239 239 239 239 239 239 238 238 239 239 239 238 238 239 239 240 240 240 240 240 240 240 239 239 239 239 242 244 247 249 249 249 249 249 248 247 246 245 244 244 245 246 248 250 252 253 252 251 251 252 252
238 238 238 238 238 238 238 238 238 238 239 239 239 239 239 239 239 239 239 239 239 239 239 239 239 239 239 239 239 239 239 239 239 239 239 239 239 239 239 239 239 239 239 239 239 239 239 239 239 239 239 239 240 240 241 242 242 242 242 242 242 243 245 247 249 250 250 250 249 249 248 247 245 244 244 244 246 248 250 252 253 253 252 252 252 253
238 238 237 237 237 237 237 238 238 238 238 238 239 239 239 239 239 239 239 239 239 239 239 239 239 239 239 239 239 239 240 240 240 240 240 240 239 239 239 239 239 239 238 238 238 239 239 239 239 239 239 240 240 241 241 242 243 243 243 244 244 244 245 246 247 248 248 248 248 248 248 247 246 245 245 245 246 248 249 251 252 253 253 253 253 254
237 237 237 237 237 237 237 237 237 238 238 238 238 238 238 238 238 238 239 239 239 239 239 239 239 239 240 240 240 240 240 240 241 241 241 240 240 239 239 239 238 238 238 238 238 239 239 239 239 239 239 240 240 241 241 242 242 243 243 243 243 243 243 244 244 244 245 245 245 245 246 246 246 246 246 246 247 248 249 250 251 252 252 253 253 254
237 237 237 237 236 236 237 237 237 237 237 237 237 238 238 238 238 238 238 238 238 239 239 239 239 239 239 240 240 240 240 241 241 241 241 241 240 240 239 239 238 238 238 238 239 239 239 239 239 239 239 239 240 240 240 241 241 242 242 242 242 242 242 242 242 243 243 243 244 244 245 245 246 246 247 247 248 248 249 250 251 251 252 253 254 255
237 237 236 236 236 236 236 236 236 236 236 236 236 237 237 237 238 238 238 238 238 238 239 239 239 239 239 239 240 240 240 241 241 241 241 241 241 240 239 239 238 238 238 238 238 239 239 239 239 239 239 239 239 239 240 240 240 241 241 241 242 242 242 242 243 243 243 244 244 245 246 246 247 247 248 248 249 249 250 251 251 252 253 253 254 255
236 236 236 235 235 234 234 234 235 235 235 235 235 235 236 236 237 237 237 237 238 238 238 238 238 239 239 239 239 239 240 240 241 241 241 241 240 240 239 239 239 238 238 238 238 238 239 239 239 239 239 239 239 239 239 239 240 240 240 241 242 242 243 243 244 244 245 246 246 247 248 248 248 249 249 249 250 251 251 252 252 253 253 254 255 255
234 234 234 234 233 233 232 233 233 234 234 234 234 234 234 235 235 236 236 237 237 237 237 237 237 238 238 238 239 239 239 239 240 240 240 240 240 239 239 239 239 239 238 238 238 238 238 238 238 239 239 239 239 239 239 239 240 240 240 241 242 242 243 244 245 246 246 247 248 248 249 249 249 250 250 250 251 251 252 253 253 254 254 255 255 256
231 232 232 232 232 231 231 231 231 232 232 233 233 233 233 233 234 235 235 236 236 236 236 236 236 237 237 237 238 238 238 239 239 239 239 239 239 239 239 239 239 239 239 239 239 238 238 238 238 238 238 239 239 239 239 240 240 240 241 242 242 243 244 245 245 246 247 247 248 249 249 250 250 250 251 251 252 252 253 253 254 254 254 255 255 256
227 228 229 229 230 230 230 230 230 231 231 231 232 232 232 232 233 234 234 235 235 235 236 236 236 236 236 237 237 237 238 238 238 238 238 239 239 239 239 239 239 239 239 239 239 239 238 238 238 238 238 238 239 239 239 240 240 241 242 242 243 244 244 245 246 246 247 248 248 249 250 250 251 251 251 252 252 252 253 253 253 254 254 254 255 255
223 224 225 226 227 228 229 229 229 230 230 230 231 231 231 231 232 232 232 233 234 234 234 235 235 235 236 236 236 236 237 237 237 238 238 238 238 239 239 239 239 240 240 239 239 239 239 239 238 238 238 239 239 239 240 240 241 241 242 243 244 244 245 246 246 247 247 248 249 249 250 250 251 251 251 252 252 252 252 253 253 253 254 254 254 255
220 221 222 223 224 226 227 228 228 228 228 229 229 230 230 230 230 231 231 232 232 233 233 234 234 234 235 235 235 235 236 236 236 237 237 237 238 238 238 239 239 239 239 239 239 239 239 239 239 239 239 240 240 240 241 241 242 242 243 243 244 245 245 246 246 247 248 248 249 249 250 250 251 251 251 251 252 252 252 252 253 253 253 254 254 254
219 219 219 220 221 222 224 225 226 227 227 228 228 229 229 229 229 229 230 230 231 232 232 232 233 233 233 234 234 234 235 235 236 236 236 237 237 238 238 238 239 239 239 239 239 239 240 240 240 240 240 241 241 241 242 242 242 243 243 244 244 245 245 246 246 247 248 248 249 249 250 250 251 251 251 251 252 252 252 252 253 253 253 253 254 254
220 218 218 218 218 219 221 223 224 225 226 227 227 227 228 228 228 228 229 230 230 231 231 231 232 232 233 233 233 233 234 234 235 235 236 236 237 237 237 238 238 239 239 239 239 240 240 240 240 241 241 241 242 242 242 243 243 243 244 244 245 245 246 246 247 247 248 248 249 249 250 250 250 251 251 251 251 252 252 252 252 253 253 253 254 254
222 220 219 219 219 219 220 221 223 224 225 226 226 226 227 227 227 228 228 229 230 230 230 231 231 232 232 232 232 233 233 234 234 235 235 236 236 237 237 237 238 238 239 239 239 239 240 240 240 241 241 241 242 242 243 243 243 244 244 245 245 246 246 246 247 247 248 248 249 249 250 250 250 251 251 251 251 252 252 252 253 253 253 253 254 254
224 222 222 221 221 220 221 221 223 224 225 226 226 227 227 228 228 228 228 229 230 230 231 231 231 231 232 232 232 233 233 233 234 234 235 235 236 236 236 237 237 238 238 239 239 239 240 240 240 241 241 241 242 242 243 243 243 244 244 245 245 246 246 247 247 248 248 249 249 249 250 250 250 251 251 251 252 252 252 253 253 253 253 254 254 254
224 223 223 223 222 222 222 222 223 224 226 226 227 228 229 229 229 229 229 230 230 231 231 231 232 232 232 232 233 233 233 233 234 234 234 235 235 236 236 236 237 237 238 238 239 239 239 240 240 241 241 241 242 242 243 243 244 244 245 245 246 246 247 247 248 248 248 249 249 250 250 250 251 251 251 252 252 252 253 253 253 254 254 254 254 254
224 223 223 223 223 223 223 223 223 224 225 226 227 228 229 230 231 231 231 231 231 231 231 231 232 233 233 233 234 234 234 234 234 235 235 235 236 236 236 236 236 237 238 238 238 239 239 240 240 241 241 242 242 243 243 244 244 245 245 246 246 247 247 247 248 248 249 249 249 250 250 250 251 251 252 252 252 253 253 254 254 254 254 255 255 255
223 223 223 223 223 222 222 222 223 224 224 225 226 227 228 229 230 231 232 232 232 232 232 232 232 233 233 234 234 234 234 234 234 235 235 236 236 236 237 236 237 237 238 238 238 239 240 240 241 241 242 242 243 243 244 244 245 245 246 246 246 247 247 248 248 248 249 249 249 250 250 250 251 251 252 252 253 253 254 254 255 255 255 255 255 256
223 223 223 222 222 221 221 222 222 223 224 224 225 226 227 228 229 230 231 232 232 232 232 232 232 232 233 233 234 234 234 234 234 235 236 236 236 237 237 237 237 238 238 239 239 239 240 240 241 242 242 243 243 244 244 245 245 246 246 246 246 247 247 247 248 248 249 249 249 250 250 251 251 252 252 253 253 254 254 255 255 255 255 256 256 256
222 222 221 221 221 221 221 221 222 222 223 224 224 225 226 227 228 228 229 230 231 232 232 232 232 232 232 233 234 235 235 234 235 235 235 235 236 237 238 238 238 238 239 239 239 239 240 240 241 242 242 243 243 244 244 245 245 246 246 246 247 247 247 248 248 248 249 249 250 250 251 251 252 253 253 254 254 255 255 255 256 256 256 256 256 256
221 221 220 220 220 220 221 221 222 222 223 223 224 225 226 227 227 228 229 229 230 231 231 232 232 232 232 232 233 234 234 235 235 235 235 235 236 237 238 238 238 239 240 240 240 240 240 241 241 242 242 243 243 244 244 245 245 246 246 246 247 247 248 248 249 249 250 250 251 251 252 253 253 254 254 255 255 255 256 256 256 256 256 256 256 256
221 220 220 220 220 220 221 221 222 223 223 224 224 225 226 226 227 228 228 229 229 230 231 232 232 232 232 232 233 233 234 234 234 235 235 235 236 237 238 238 239 239 240 240 240 240 241 241 242 242 243 243 243 244 244 244 245 246 246 247 247 248 248 249 250 250 251 251 252 253 253 254 254 255 255 255 256 256 256 256 255 255 255 255 255 255
221 221 220 220 220 221 221 222 223 223 223 224 224 224 225 225 226 227 228 228 229 229 230 231 231 232 233 233 233 233 234 234 234 234 235 236 236 237 238 239 240 240 240 240 240 240 241 242 242 242 243 243 243 244 244 245 245 246 247 247 248 249 249 250 251 251 252 252 253 253 254 254 255 255 255 255 255 255 255 255 255 255 254 254 254 255
221 221 221 221 221 221 222 222 223 223 223 223 223 223 224 224 225 226 226 227 227 227 227 227 229 230 231 232 233 233 234 234 234 234 234 235 236 236 237 239 241 242 242 242 241 241 241 242 242 243 243 243 244 244 245 245 246 246 247 248 248 249 250 251 251 252 252 253 253 254 254 254 255 255 255 255 255 254 254 254 254 254 254 254 254 254
219 220 220 221 221 221 221 222 222 222 222 222 222 222 222 223 224 224 225 226 226 225 224 224 225 226 228 229 230 231 232 233 233 233 234 234 235 235 236 237 239 241 243 243 243 242 242 242 242 243 243 243 244 244 245 245 246 246 247 248 248 249 249 250 251 251 252 252 253 253 253 254 254 254 254 254 253 253 253 253 253 253 253 253 253 253
218 218 219 219 220 220 220 220 221 221 221 222 222 222 222 223 223 224 225 226 226 225 224 223 223 224 225 226 227 229 230 230 231 231 232 233 233 234 234 235 237 239 242 244 244 244 243 243 243 243 243 243 244 244 245 245 246 246 246 247 247 248 249 249 250 250 251 251 251 252 252 253 253 253 253 252 252 252 252 252 252 252 252 252 252 252
216 217 217 217 218 218 218 219 220 221 222 223 223 224 224 224 224 225 226 227 227 226 226 224 224 224 225 227 228 229 230 230 231 231 231 232 233 234 235 236 237 239 241 243 244 245 245 244 244 244 244 244 244 244 245 245 245 245 245 246 246 246 247 247 248 248 249 249 250 250 251 251 251 251 251 251 251 251 251 251 251 251 251 251 251 251
215 215 216 216 216 216 217 218 220 221 223 224 225 226 226 226 227 227 228 228 228 228 227 227 226 226 227 228 230 232 233 233 233 233 234 235 236 236 237 238 239 241 242 243 244 245 245 244 244 244 244 244 244 244 244 244 244 244 244 244 245 245 245 245 246 246 246 247 248 248 249 249 249 249 250 250 250 250 250 250 249 249 249 249 249 249
214 215 215 216 216 216 217 218 219 220 222 224 225 227 228 228 229 229 230 229 229 229 229 229 229 228 229 229 231 233 234 234 235 236 237 238 239 239 240 241 241 242 242 242 243 243 243 243 244 244 244 243 243 243 243 243 243 242 243 243 243 244 243 243 243 244 244 245 245 246 246 247 247 248 248 248 249 249 248 248 248 248 248 247 247 248
215 215 216 216 216 217 217 218 219 220 221 223 225 226 228 229 230 230 231 231 231 231 231 231 231 230 230 230 231 233 234 235 236 237 238 240 240 241 241 242 242 241 241 240 240 240 241 241 241 241 241 241 241 242 241 241 241 241 241 242 242 242 241 241 241 242 243 243 244 244 245 245 246 246 247 247 247 247 247 247 247 247 246 246 246 247
216 216 217 217 218 218 219 219 220 221 222 223 225 226 228 229 230 231 232 232 232 232 232 233 233 232 232 232 232 233 234 235 236 237 238 239 240 241 241 240 240 240 239 238 237 237 238 238 238 238 238 238 239 239 239 238 239 239 240 240 240 240 240 241 241 242 242 242 243 243 243 244 244 245 246 246 246 247 247 246 246 246 246 246 246 247
217 217 217 218 219 219 220 221 222 222 224 225 226 227 229 230 231 232 233 233 233 233 233 233 234 234 234 234 234 234 235 235 236 236 237 238 239 239 239 239 238 237 237 236 235 235 235 235 236 236 236 236 236 236 236 237 237 238 239 240 240 241 242 242 243 243 243 243 243 243 243 243 244 245 245 246 246 247 247 247 247 247 247 247 247 248
217 217 218 218 219 220 221 221 222 223 225 226 227 228 230 231 232 233 234 234 234 234 234 234 234 235 235 235 235 235 235 235 235 235 236 237 237 237 237 236 236 235 234 234 233 233 233 233 234 234 234 234 234 234 235 236 237 239 240 241 242 243 245 245 246 245 245 244 244 243 243 244 244 245 246 247 247 248 248 248 248 248 248 248 249 249
217 218 218 219 220 220 221 222 223 224 225 226 227 229 230 231 233 234 235 236 236 235 235 235 235 235 235 235 235 235 235 234 234 234 235 235 235 235 235 235 234 233 233 232 232 232 232 232 233 233 233 233 233 234 234 236 238 240 242 243 245 246 247 247 247 247 246 246 245 244 244 244 245 246 247 248 248 249 249 249 249 249 249 249 250 250
217 218 219 220 221 221 222 223 224 224 225 226 227 228 230 231 233 235 236 237 237 237 236 235 234 234 234 235 234 234 234 233 233 233 233 233 234 234 234 233 233 232 232 232 232 232 232 232 232 233 233 233 233 234 235 237 239 242 243 245 246 247 247 248 248 248 247 247 246 245 245 245 246 246 247 248 249 249 250 250 250 250 250 250 250 250
218 219 220 221 222 223 224 224 225 225 225 226 226 228 229 231 233 235 236 237 237 237 236 235 234 234 234 234 234 233 233 233 232 232 232 232 233 233 233 233 233 232 232 232 232 232 232 232 232 233 233 233 234 236 237 239 241 242 244 245 246 246 247 247 247 247 247 247 246 246 245 245 246 246 247 248 249 249 249 250 250 250 249 249 249 249
220 220 221 222 223 224 225 226 226 226 226 226 227 228 229 231 232 234 235 236 237 237 236 235 234 234 234 234 234 233 233 233 233 233 233 233 233 233 233 233 233 233 233 233 233 233 233 233 233 234 234 235 236 238 239 240 242 243 244 245 245 245 246 246 246 246 246 246 246 246 246 246 246 246 247 247 248 248 248 249 249 248 248 248 248 248
223 223 224 225 226 227 227 228 228 228 228 228 228 228 229 230 232 233 234 235 236 237 236 236 235 234 234 234 235 234 234 234 234 234 234 234 234 235 234 234 234 234 234 234 234 234 234 234 234 235 236 237 238 239 240 241 242 243 244 244 244 244 244 245 245 245 245 245 245 245 245 246 246 246 246 247 247 247 247 247 247 247 247 247 247 247
226 227 227 228 229 229 230 230 230 229 229 229 229 229 229 230 231 232 233 234 235 236 236 236 236 235 235 235 236 236 236 235 235 235 235 236 235 235 235 235 235 235 235 235 235 235 235 236 236 236 237 238 239 240 241 242 243 243 243 244 244 244 244 244 244 244 244 244 245 245 245 246 246 246 246 246 247 247 247 246 246 246 246 246 246 246
228 229 230 231 231 232 232 232 232 231 231 230 230 229 230 230 231 231 232 234 235 236 236 236 236 236 236 236 236 236 236 236 236 236 236 236 236 236 236 236 236 236 236 237 237 237 237 237 238 238 239 239 240 241 242 242 243 243 243 243 243 243 243 243 243 243 243 244 244 245 245 246 246 246 246 246 246 246 246 246 246 245 245 245 245 245
228 230 232 233 234 234 234 234 233 232 231 231 230 230 230 230 231 232 233 233 234 235 236 237 237 237 237 237 236 236 236 236 236 236 236 235 235 236 236 236 237 237 238 238 239 239 239 239 240 240 240 241 241 242 242 242 243 243 243 243 243 243 243 242 242 242 243 244 244 245 245 246 246 246 246 246 246 246 245 245 245 245 245 245 244 245
227 230 232 234 235 235 235 234 233 233 232 231 231 231 231 231 231 232 233 234 234 235 236 237 237 237 237 237 237 236 236 236 235 235 235 235 235 236 236 237 238 238 239 240 240 241 241 241 242 242 242 243 243 243 243 243 243 243 243 242 242 242 242 242 242 242 243 244 244 245 245 246 246 246 246 246 246 245 245 244 244 244 244 244 244 244
226 228 230 232 233 234 233 233 233 232 232 232 232 231 231 232 232 233 233 234 235 235 236 236 237 237 237 237 237 236 236 235 235 235 235 235 235 236 237 238 238 239 240 241 241 242 243 243 244 244 244 245 245 245 245 244 244 243 243 243 243 243 243 242 242 243 243 244 244 245 246 246 247 247 246 246 245 245 244 244 243 243 243 243 243 243
223 225 227 229 230 231 231 231 232 232 232 232 232 232 232 233 233 233 234 234 235 235 236 236 236 237 237 237 237 236 236 235 235 235 235 235 235 236 237 238 239 240 241 241 242 243 243 244 245 245 246 246 246 246 246 246 245 245 244 244 244 244 243 243 243 243 243 244 245 245 246 247 247 247 247 246 245 245 244 243 243 243 243 243 243 243
221 222 223 225 226 227 228 229 230 231 231 232 233 233 233 233 233 234 234 234 234 235 235 235 236 236 236 236 236 236 236 236 235 235 235 235 236 236 237 238 239 240 241 242 242 243 244 244 245 246 247 247 247 247 247 247 247 247 246 246 245 245 245 245 244 244 244 245 245 246 246 247 247 248 247 247 246 245 244 244 244 244 244 243 243 242
219 219 220 221 222 223 225 227 228 230 231 232 233 233 233 233 233 233 234 234 234 234 234 235 235 235 236 236 236 236 236 236 236 236 236 236 237 237 238 239 240 241 241 242 243 243 244 244 245 246 247 247 248 248 248 248 248 248 248 247 247 247 246 246 245 245 245 246 246 246 247 247 248 248 248 247 246 245 245 245 245 244 244 244 242 241
218 218 218 218 219 221 223 225 227 229 230 231 232 233 233 233 233 233 233 233 233 233 234 234 234 235 235 235 235 236 236 236 236 237 237 237 238 238 239 240 240 241 242 242 243 244 244 245 245 246 247 248 248 248 248 249 249 249 249 249 248 248 248 247 246 246 246 246 246 246 247 248 248 248 247 247 246 245 245 245 245 245 244 243 241 239
218 218 217 218 219 220 222 224 226 228 229 231 231 232 232 232 232 232 232 232 232 232 233 233 234 234 234 235 235 235 236 236 237 237 238 238 239 239 240 241 241 242 242 243 243 244 244 245 245 246 247 248 248 249 249 249 249 249 249 249 249 249 248 247 246 246 246 246 246 246 247 247 247 247 246 245 244 244 244 244 244 244 243 241 239 237
219 218 218 218 219 221 222 224 226 227 228 229 230 230 231 231 231 231 231 231 231 232 232 232 233 233 234 234 234 235 236 236 237 238 238 238 239 240 241 241 242 243 244 244 244 245 245 246 246 246 247 248 248 249 249 249 249 249 249 249 249 249 248 247 246 246 245 245 245 245 246 246 246 245 244 242 242 241 242 242 243 242 240 238 236 235
Height
5571 5575 5578 5582 5586 5589 5591 5593 5596 5599 5602 5605 5607 5608 5610 5613 5616 5619 5622 5624 5627 5629 5632 5634 5637 5639 5641 5644 5646 5648 5650 5653 5656 5658 5661 5663 5665 5668 5670 5672 5674 5676 5678 5680 5682 5684 5685 5687 5689 5691 5692 5693 5695 5696 5697 5699 5701 5702 5704 5705 5707 5708 5708 5709 5710 5713 5715 5717 5718 5720 5722 5724 5725 5727 5729 5730 5732 5733 5733 5734 5736 5737 5738 5740 5741 5743
5564 5568 5572 5576 5579 5583 5585 5587 5591 5594 5596 5598 5600 5603 5605 5608 5611 5614 5617 5620 5622 5624 5627 5629 5632 5634 5637 5638 5641 5643 5645 5648 5650 5653 5655 5658 5660 5663 5664 5667 5668 5670 5672 5674 5676 5678 5680 5682 5684 5685 5687 5689 5690 5691 5692 5693 5695 5697 5698 5700 5701 5703 5704 5705 5706 5708 5710 5712 5714 5715 5717 5719 5721 5723 5724 5726 5727 5728 5728 5730 5731 5732 5733 5735 5737 5738
5558 5561 5566 5569 5573 5576 5579 5581 5585 5589 5590 5591 5594 5597 5600 5603 5606 5608 5611 5614 5617 5619 5621 5624 5627 5629 5631 5633 5636 5638 5640 5643 5645 5648 5650 5653 5655 5657 5659 5661 5663 5665 5667 5669 5671 5673 5674 5676 5678 5680 5682 5683 5685 5686 5687 5689 5690 5692 5693 5695 5696 5698 5699 5701 5702 5704 5706 5708 5709 5711 5712 5714 5716 5718 5719 5720 5722 5723 5724 5725 5726 5727 5729 5730 5732 5733
5551 5555 5559 5563 5567 5570 5573 5575 5578 5582 5584 5586 5588 5591 5594 5598 5600 5603 5606 5608 5611 5614 5616 5619 5622 5624 5627 5628 5631 5633 5635 5638 5640 5642 5645 5647 5649 5652 5654 5656 5658 5660 5662 5664 5666 5668 5669 5671 5673 5675 5677 5678 5679 5681 5683 5684 5685 5687 5688 5690 5691 5693 5695 5697 5698 5700 5702 5703 5705 5706 5708 5709 5711 5713 5714 5715 5717 5718 5719 5720 5721 5722 5724 5725 5727 5728
5545 5549 5553 5556 5561 5565 5567 5569 5572 5575 5578 5581 5583 5586 5588 5591 5594 5597 5600 5603 5606 5608 5611 5614 5617 5619 5621 5623 5626 5628 5630 5633 5635 5637 5639 5642 5644 5647 5649 5651 5653 5655 5657 5658 5660 5662 5664 5666 5668 5670 5672 5673 5674 5676 5678 5679 5681 5682 5683 5685 5687 5688 5690 5692 5693 5695 5697 5698 5700 5701 5703 5704 5706 5707 5709 5710 5712 5713 5714 5715 5716 5718 5719 5721 5722 5724
5539 5543 5546 5550 5555 5559 5561 5563 5566 5569 5571 5574 5578 5580 5582 5585 5588 5591 5594 5598 5601 5603 5606 5609 5612 5614 5616 5618 5621 5623 5625 5628 5630 5632 5634 5636 5639 5641 5643 5645 5648 5650 5652 5653 5655 5657 5659 5661 5663 5664 5666 5668 5669 5671 5673 5674 5676 5677 5679 5680 5682 5683 5685 5687 5688 5690 5691 5693 5694 5696 5697 5699 5700 5702 5704 5705 5706 5708 5709 5710 5712 5713 5715 5716 5718 5719
5533 5537 5541 5545 5550 5553 5555 5557 5560 5563 5565 5568 5571 5574 5577 5579 5582 5585 5589 5592 5594 5598 5601 5604 5607 5609 5611 5613 5616 5618 5620 5623 5625 5627 5629 5631 5633 5636 5638 5640 5642 5644 5647 5648 5650 5652 5654 5656 5657 5659 5661 5663 5664 5666 5668 5669 5671 5672 5673 5675 5677 5678 5680 5681 5683 5685 5686 5688 5689 5691 5692 5694 5696 5697 5699 5700 5702 5703 5704 5706 5707 5709 5710 5712 5713 5714
5527 5532 5536 5540 5544 5548 5551 5552 5554 5556 5559 5562 5565 5568 5572 5574 5577 5580 5583 5586 5589 5593 5596 5599 5601 5603 5606 5608 5610 5613 5615 5618 5620 5622 5624 5626 5628 5630 5633 5635 5637 5639 5641 5643 5645 5647 5649 5650 5652 5654 5656 5658 5659 5661 5662 5664 5665 5667 5668 5670 5672 5673 5675 5677 5678 5680 5682 5683 5685 5686 5688 5689 5691 5692 5694 5695 5697 5698 5699 5701 5703 5704 5705 5707 5708 5710
5522 5526 5530 5534 5537 5541 5545 5547 5548 5550 5553 5557 5560 5563 5566 5569 5571 5574 5578 5581 5584 5588 5591 5593 5595 5598 5600 5603 5605 5608 5610 5613 5614 5617 5619 5621 5623 5625 5627 5629 5632 5634 5636 5638 5640 5642 5644 5646 5647 5649 5651 5652 5654 5656 5657 5659 5660 5662 5664 5665 5667 5669 5670 5672 5674 5675 5677 5678 5680 5681 5683 5684 5686 5687 5689 5690 5692 5693 5695 5696 5698 5699 5701 5702 5704 5705
5518 5522 5524 5528 5531 5535 5538 5541 5543 5545 5548 5552 5555 5558 5561 5564 5567 5570 5573 5576 5579 5582 5584 5587 5590 5593 5595 5598 5600 5603 5605 5607 5609 5611 5613 5616 5618 5620 5622 5624 5627 5629 5631 5633 5635 5637 5639 5640 5642 5644 5646 5647 5649 5650 5652 5654 5655 5657 5659 5661 5662 5664 5666 5668 5669 5671 5672 5674 5675 5676 5678 5679 5681 5682 5684 5685 5687 5688 5690 5691 5693 5695 5696 5698 5699 5701
5513 5517 5520 5523 5527 5530 5533 5536 5538 5540 5543 5547 5550 5553 5556 5559 5562 5565 5568 5571 5573 5576 5579 5582 5585 5587 5590 5593 5596 5598 5600 5602 5604 5606 5608 5610 5613 5615 5617 5619 5621 5623 5626 5628 5630 5632 5633 5635 5637 5638 5640 5642 5644 5645 5647 5649 5651 5652 5654 5656 5658 5659 5661 5663 5664 5666 5668 5669 5670 5672 5673 5674 5676 5677 5679 5680 5682 5683 5685 5687 5688 5690 5691 5693 5694 5696
5508 5512 5516 5519 5522 5525 5528 5531 5533 5535 5539 5543 5545 5547 5551 5554 5557 5560 5563 5566 5568 5570 5574 5577 5579 5582 5586 5588 5590 5593 5595 5597 5599 5601 5603 5605 5607 5610 5612 5614 5616 5618 5620 5623 5624 5626 5628 5630 5631 5633 5635 5637 5638 5640 5642 5644 5645 5647 5649 5651 5653 5654 5656 5658 5660 5661 5663 5664 5666 5667 5668 5669 5671 5672 5674 5675 5677 5679 5680 5682 5683 5685 5687 5688 5689 5691
5504 5507 5511 5515 5518 5521 5523 5526 5528 5531 5534 5538 5540 5542 5545 5549 5552 5556 5559 5560 5562 5565 5569 5572 5574 5578 5581 5583 5585 5587 5589 5592 5593 5595 5598 5600 5602 5604 5607 5609 5611 5613 5615 5617 5619 5621 5623 5624 5626 5628 5629 5631 5633 5635 5637 5638 5640 5642 5644 5646 5648 5649 5651 5653 5655 5657 5658 5660 5661 5662 5663 5664 5666 5667 5669 5670 5672 5674 5675 5677 5679 5680 5682 5683 5685 5686
5500 5503 5507 5510 5514 5517 5520 5522 5524 5526 5529 5532 5535 5538 5542 5545 5548 5552 5554 5556 5558 5560 5564 5567 5570 5573 5575 5577 5579 5581 5584 5586 5588 5590 5593 5595 5597 5599 5601 5604 5606 5608 5610 5612 5614 5615 5617 5618 5620 5622 5623 5626 5628 5630 5632 5634 5636 5637 5639 5641 5643 5645 5647 5648 5650 5652 5653 5655 5656 5657 5658 5659 5661 5662 5664 5665 5667 5669 5671 5672 5674 5675 5677 5678 5680 5681
5496 5499 5503 5506 5508 5512 5515 5518 5521 5523 5525 5528 5532 5535 5538 5542 5545 5548 5549 5550 5553 5556 5559 5563 5565 5568 5570 5572 5574 5576 5578 5580 5583 5585 5588 5590 5591 5593 5596 5599 5601 5603 5605 5607 5609 5610 5611 5613 5615 5617 5618 5620 5623 5625 5627 5629 5631 5632 5634 5636 5638 5640 5641 5643 5645 5647 5648 5650 5651 5652 5653 5655 5656 5657 5659 5660 5662 5664 5666 5667 5669 5671 5672 5673 5675 5676
5492 5495 5499 5501 5504 5507 5510 5513 5517 5520 5523 5525 5528 5531 5534 5537 5539 5542 5544 5546 5548 5552 5556 5559 5561 5563 5565 5567 5569 5571 5573 5576 5578 5580 5583 5585 5586 5588 5592 5594 5596 5598 5600 5602 5603 5604 5605 5608 5610 5611 5613 5615 5618 5619 5622 5624 5626 5627 5629 5631 5633 5634 5636 5638 5640 5642 5643 5644 5646 5647 5648 5650 5651 5652 5654 5656 5657 5659 5661 5663 5664 5666 5667 5669 5670 5671
5489 5492 5494 5497 5500 5503 5506 5509 5513 5516 5518 5522 5525 5528 5530 5532 5534 5537 5540 5542 5545 5548 5552 5554 5556 5558 5560 5562 5564 5567 5569 5571 5573 5575 5578 5580 5582 5584 5587 5590 5592 5593 5594 5597 5598 5599 5600 5603 5605 5606 5608 5610 5613 5615 5617 5619 5620 5622 5624 5626 5628 5629 5631 5633 5634 5636 5638 5639 5641 5642 5643 5645 5646 5648 5649 5651 5652 5654 5656 5658 5659 5661 5662 5664 5665 5666
5485 5488 5491 5493 5496 5499 5502 5506 5509 5512 5514 5518 5521 5524 5526 5528 5530 5533 5536 5539 5541 5544 5548 5550 5552 5554 5556 5558 5561 5563 5564 5567 5569 5571 5573 5575 5577 5578 5582 5585 5587 5588 5589 5591 5593 5594 5596 5598 5600 5601 5603 5606 5608 5610 5612 5613 5615 5617 5619 5621 5622 5624 5626 5628 5629 5631 5632 5634 5636 5637 5638 5640 5641 5643 5644 5646 5648 5649 5651 5653 5654 5656 5658 5659 5660 5661
5481 5484 5487 5489 5493 5495 5498 5502 5505 5508 5510 5513 5516 5519 5522 5524 5527 5530 5532 5534 5537 5540 5543 5546 5548 5550 5552 5554 5556 5558 5561 5564 5565 5566 5568 5571 5572 5574 5577 5580 5582 5583 5584 5586 5588 5589 5591 5593 5595 5597 5598 5601 5603 5605 5607 5608 5610 5612 5614 5615 5617 5619 5620 5622 5624 5625 5627 5629 5630 5632 5633 5634 5636 5638 5639 5641 5643 5644 5646 5648 5649 5651 5653 5654 5655 5656
5477 5480 5483 5486 5489 5492 5495 5498 5501 5503 5506 5509 5512 5514 5517 5520 5523 5526 5528 5531 5533 5536 5539 5542 5544 5546 5548 5551 5553 5554 5557 5560 5561 5562 5564 5566 5568 5569 5572 5575 5577 5578 5579 5581 5583 5584 5586 5588 5590 5592 5594 5596 5598 5599 5601 5603 5605 5607 5608 5610 5612 5613 5615 5617 5618 5620 5622 5623 5625 5627 5628 5629 5631 5633 5634 5636 5638 5640 5641 5643 5645 5646 5648 5648 5650 5651
5474 5477 5479 5482 5485 5488 5491 5494 5497 5500 5503 5505 5508 5511 5513 5516 5518 5521 5524 5527 5530 5533 5536 5538 5540 5542 5544 5547 5548 5550 5552 5555 5557 5558 5559 5562 5564 5565 5568 5570 5572 5573 5574 5576 5578 5580 5582 5584 5585 5587 5589 5591 5593 5594 5596 5598 5600 5602 5603 5605 5607 5608 5610 5612 5613 5615 5617 5618 5620 5621 5623 5625 5626 5628 5630 5632 5633 5635 5637 5638 5640 5641 5643 5643 5644 5645
5470 5473 5476 5479 5482 5485 5487 5490 5493 5496 5499 5502 5504 5507 5509 5512 5514 5517 5519 5522 5525 5528 5531 5534 5536 5538 5540 5543 5544 5545 5548 5551 5553 5554 5555 5558 5560 5562 5562 5565 5567 5568 5569 5571 5573 5575 5578 5579 5581 5582 5584 5586 5588 5590 5592 5593 5595 5597 5598 5600 5602 5603 5605 5607 5608 5610 5612 5613 5615 5616 5618 5620 5622 5623 5625 5627 5628 5630 5632 5633 5635 5636 5637 5638 5639 5640
5467 5470 5472 5475 5478 5481 5483 5486 5489 5492 5495 5498 5500 5503 5505 5508 5511 5513 5516 5518 5521 5524 5526 5529 5532 5534 5536 5538 5540 5541 5543 5546 5548 5550 5552 5554 5556 5557 5557 5560 5563 5564 5565 5566 5568 5570 5573 5574 5576 5578 5580 5582 5583 5585 5587 5588 5590 5592 5593 5595 5597 5599 5600 5602 5604 5605 5607 5608 5610 5611 5613 5615 5617 5618 5620 5622 5623 5625 5627 5628 5630 5631 5632 5633 5634 5635
5463 5466 5469 5472 5474 5477 5480 5483 5486 5488 5491 5493 5496 5498 5501 5504 5507 5509 5512 5514 5517 5520 5523 5525 5528 5530 5532 5534 5535 5536 5538 5541 5543 5546 5548 5550 5551 5552 5554 5556 5558 5560 5560 5560 5563 5565 5568 5570 5571 5573 5575 5577 5579 5580 5582 5583 5585 5587 5588 5591 5593 5594 5596 5598 5599 5600 5602 5603 5605 5606 5608 5610 5612 5613 5615 5617 5618 5620 5622 5623 5624 5626 5627 5628 5628 5630
5460 5463 5465 5468 5471 5474 5477 5480 5482 5485 5487 5490 5492 5495 5498 5500 5503 5505 5508 5510 5513 5516 5518 5521 5523 5525 5526 5528 5530 5532 5534 5536 5539 5541 5543 5545 5547 5549 5551 5553 5554 5555 5555 5556 5558 5562 5564 5565 5566 5568 5571 5573 5574 5575 5577 5579 5581 5582 5584 5586 5588 5590 5591 5593 5594 5595 5597 5598 5600 5601 5603 5605 5607 5608 5610 5612 5613 5615 5616 5618 5619 5620 5621 5622 5623 5624
5458 5460 5463 5465 5468 5471 5474 5477 5479 5482 5484 5486 5489 5491 5494 5496 5499 5502 5504 5507 5509 5511 5513 5516 5518 5519 5521 5523 5526 5528 5530 5532 5535 5537 5539 5541 5542 5544 5547 5549 5550 5551 5551 5552 5554 5558 5559 5560 5561 5563 5566 5568 5569 5570 5572 5574 5576 5578 5580 5582 5583 5585 5586 5587 5588 5590 5591 5593 5594 5596 5598 5600 5602 5603 5605 5606 5608 5609 5611 5612 5613 5615 5615 5616 5618 5619
5455 5457 5460 5463 5465 5468 5470 5473 5476 5478 5481 5483 5485 5488 5490 5493 5495 5498 5500 5502 5503 5506 5508 5511 5513 5515 5518 5521 5523 5525 5526 5528 5531 5533 5534 5536 5538 5539 5542 5545 5547 5548 5549 5549 5550 5553 5554 5555 5556 5558 5561 5563 5564 5566 5568 5570 5572 5573 5575 5577 5578 5580 5581 5582 5583 5585 5586 5588 5589 5591 5593 5595 5596 5598 5599 5601 5602 5604 5605 5607 5608 5609 5610 5611 5612 5613
5451 5453 5456 5459 5462 5465 5468 5470 5472 5475 5477 5479 5482 5484 5487 5489 5492 5493 5494 5496 5499 5503 5505 5507 5508 5511 5513 5516 5518 5520 5522 5524 5527 5528 5530 5532 5533 5535 5537 5539 5542 5545 5546 5547 5547 5548 5549 5551 5552 5553 5556 5558 5559 5561 5563 5565 5567 5568 5570 5572 5573 5575 5576 5577 5578 5579 5581 5583 5584 5586 5588 5590 5591 5593 5594 5596 5597 5598 5600 5602 5603 5604 5605 5606 5607 5608
5448 5450 5453 5456 5458 5462 5464 5467 5469 5472 5474 5476 5478 5481 5483 5485 5487 5489 5491 5493 5497 5500 5502 5503 5504 5506 5509 5511 5513 5515 5518 5520 5522 5523 5525 5528 5530 5531 5532 5535 5538 5539 5541 5542 5543 5544 5546 5547 5548 5549 5551 5553 5555 5557 5559 5560 5562 5563 5565 5567 5568 5570 5571 5572 5573 5575 5576 5578 5579 5581 5583 5585 5586 5588 5589 5590 5592 5593 5595 5597 5598 5598 5599 5600 5602 5603
5445 5448 5450 5453 5455 5458 5461 5463 5466 5468 5470 5473 5475 5477 5479 5481 5483 5486 5488 5491 5494 5496 5497 5498 5501 5503 5505 5507 5509 5512 5513 5515 5516 5518 5521 5524 5526 5526 5528 5531 5533 5534 5535 5537 5538 5539 5541 5541 5542 5544 5547 5548 5551 5553 5554 5555 5557 5558 5560 5562 5563 5565 5566 5568 5569 5570 5572 5573 5575 5577 5578 5580 5581 5583 5584 5585 5587 5588 5590 5591 5593 5593 5594 5595 5596 5598
5442 5444 5447 5449 5452 5454 5457 5459 5462 5464 5467 5469 5471 5473 5476 5478 5480 5482 5484 5487 5490 5491 5493 5495 5497 5500 5501 5503 5505 5507 5508 5510 5512 5514 5518 5520 5521 5521 5523 5527 5529 5529 5530 5532 5533 5534 5535 5536 5538 5540 5543 5544 5546 5548 5549 5551 5552 5554 5555 5557 5559 5560 5562 5563 5564 5566 5567 5569 5571 5572 5574 5576 5577 5578 5580 5581 5582 5584 5585 5586 5587 5588 5589 5590 5592 5593
5439 5442 5444 5446 5449 5451 5453 5456 5458 5461 5463 5465 5468 5470 5472 5474 5476 5478 5481 5483 5485 5487 5489 5491 5493 5495 5497 5499 5501 5502 5504 5506 5509 5512 5514 5516 5516 5517 5519 5523 5524 5525 5525 5528 5529 5530 5531 5532 5534 5537 5539 5541 5542 5543 5544 5546 5548 5550 5551 5553 5554 5556 5557 5558 5560 5562 5563 5565 5567 5568 5570 5571 5573 5574 5575 5577 5578 5579 5580 5582 5583 5583 5584 5586 5587 5588
5436 5439 5441 5443 5446 5448 5450 5453 5455 5457 5459 5462 5464 5466 5468 5471 5473 5475 5477 5479 5481 5483 5485 5487 5489 5491 5493 5495 5497 5499 5501 5503 5506 5508 5510 5511 5512 5513 5516 5518 5519 5520 5521 5523 5525 5526 5527 5528 5531 5533 5536 5537 5538 5539 5540 5542 5544 5546 5548 5549 5550 5551 5553 5554 5556 5558 5559 5561 5563 5564 5566 5568 5569 5570 5572 5573 5574 5575 5576 5577 5578 5579 5580 5581 5583 5583
5433 5436 5438 5440 5443 5445 5447 5449 5452 5454 5456 5458 5460 5463 5465 5467 5469 5471 5473 5475 5477 5479 5481 5483 5485 5487 5489 5491 5493 5495 5497 5499 5501 5503 5505 5507 5508 5509 5511 5513 5515 5516 5517 5519 5521 5523 5524 5525 5527 5529 5531 5533 5534 5535 5536 5538 5539 5541 5543 5545 5546 5547 5549 5550 5552 5554 5555 5557 5559 5561 5562 5564 5565 5566 5568 5568 5570 5570 5571 5572 5573 5574 5576 5577 5578 5579
5430 5433 5435 5437 5439 5442 5444 5446 5448 5450 5453 5455 5457 5459 5461 5463 5465 5468 5469 5472 5473 5475 5477 5479 5481 5483 5485 5487 5489 5491 5493 5495 5497 5499 5501 5503 5503 5505 5507 5509 5510 5511 5513 5515 5517 5518 5520 5522 5523 5525 5527 5528 5530 5532 5533 5534 5535 5537 5539 5541 5543 5544 5545 5547 5548 5550 5551 5553 5555 5557 5558 5560 5561 5562 5563 5564 5565 5566 5567 5568 5569 5570 5571 5572 5573 5574
5427 5429 5431 5434 5436 5438 5440 5443 5445 5447 5449 5451 5453 5455 5458 5459 5461 5463 5465 5468 5470 5472 5473 5475 5477 5479 5481 5483 5485 5487 5488 5490 5493 5495 5497 5498 5499 5501 5503 5505 5506 5508 5510 5511 5513 5514 5516 5518 5519 5521 5523 5525 5526 5528 5529 5530 5532 5534 5536 5538 5539 5540 5541 5543 5544 5546 5547 5549 5551 5553 5554 5555 5557 5558 5559 5559 5560 5561 5562 5563 5564 5566 5567 5568 5569 5570
5423 5425 5428 5430 5433 5435 5437 5439 5441 5443 5445 5448 5450 5452 5454 5456 5458 5459 5462 5463 5466 5468 5470 5472 5474 5476 5477 5479 5481 5483 5484 5487 5489 5491 5493 5494 5495 5497 5499 5500 5502 5504 5506 5508 5509 5511 5513 5514 5516 5518 5519 5521 5522 5524 5526 5527 5529 5531 5532 5533 5534 5536 5537 5538 5540 5542 5543 5545 5546 5548 5550 5551 5552 5553 5554 5555 5556 5557 5558 5559 5560 5561 5562 5563 5564 5565
5420 5422 5424 5427 5429 5431 5433 5436 5438 5440 5442 5444 5446 5448 5450 5452 5454 5456 5458 5460 5462 5464 5466 5468 5470 5472 5474 5476 5477 5479 5481 5483 5485 5487 5488 5490 5492 5493 5495 5496 5498 5500 5502 5503 5505 5507 5509 5511 5512 5513 5515 5517 5518 5520 5522 5524 5526 5527 5528 5529 5531 5532 5533 5535 5536 5538 5539 5541 5542 5544 5546 5547 5548 5549 5549 5550 5551 5552 5553 5554 5555 5557 5558 5558 5560 5561
5417 5419 5421 5423 5425 5428 5430 5432 5434 5436 5438 5440 5443 5444 5447 5448 5450 5452 5454 5456 5458 5460 5462 5464 5466 5468 5470 5472 5473 5475 5477 5479 5481 5483 5484 5486 5488 5489 5491 5492 5494 5496 5498 5499 5501 5504 5506 5507 5508 5510 5512 5513 5515 5517 5519 5520 5522 5523 5524 5525 5527 5528 5529 5530 5532 5533 5535 5537 5538 5540 5541 5543 5543 5544 5545 5546 5547 5548 5549 5550 5551 5552 5553 5554 5555 5556
5413 5415 5418 5420 5422 5424 5426 5428 5430 5433 5435 5437 5439 5441 5443 5445 5447 5449 5451 5453 5454 5456 5458 5460 5462 5464 5466 5468 5470 5471 5473 5475 5477 5478 5480 5482 5483 5485 5487 5488 5490 5492 5494 5496 5498 5500 5502 5503 5505 5506 5508 5510 5511 5513 5514 5516 5517 5518 5520 5522 5523 5524 5525 5526 5528 5530 5531 5533 5534 5536 5537 5538 5539 5540 5541 5542 5543 5543 5545 5545 5547 5548 5549 5550 5551 5552
5409 5412 5414 5416 5418 5420 5422 5424 5427 5429 5431 5433 5436 5438 5440 5442 5444 5446 5447 5449 5451 5453 5454 5456 5458 5461 5463 5464 5466 5468 5469 5471 5473 5475 5476 5478 5479 5481 5483 5484 5486 5488 5490 5492 5494 5496 5498 5499 5501 5503 5504 5506 5507 5508 5510 5512 5513 5514 5516 5517 5518 5519 5521 5523 5525 5526 5527 5529 5530 5531 5532 5533 5534 5536 5536 5537 5538 5539 5540 5541 5543 5544 5545 5546 5547 5548
5406 5408 5410 5412 5414 5417 5418 5421 5423 5426 5428 5430 5433 5434 5436 5438 5440 5442 5444 5446 5448 5449 5451 5453 5455 5457 5459 5460 5462 5464 5466 5467 5469 5471 5473 5474 5476 5478 5479 5481 5483 5485 5487 5488 5490 5492 5494 5496 5497 5499 5500 5502 5503 5504 5506 5507 5508 5510 5512 5513 5513 5515 5517 5519 5520 5522 5523 5524 5526 5527 5528 5529 5530 5531 5532 5533 5534 5535 5536 5538 5538 5539 5540 5542 5543 5544
5402 5404 5406 5408 5411 5413 5415 5418 5420 5423 5425 5427 5429 5431 5433 5435 5437 5439 5441 5443 5444 5446 5447 5449 5451 5453 5455 5457 5458 5460 5462 5464 5466 5468 5469 5471 5473 5474 5476 5478 5479 5481 5483 5485 5486 5488 5489 5491 5493 5494 5496 5498 5499 5500 5501 5503 5504 5506 5507 5508 5510 5512 5513 5514 5516 5518 5520 5520 5521 5522 5523 5525 5526 5527 5528 5529 5530 5531 5532 5533 5534 5535 5536 5538 5538 5540
5398 5400 5403 5405 5408 5410 5412 5415 5417 5419 5421 5424 5426 5428 5430 5432 5433 5435 5437 5439 5440 5442 5444 5446 5448 5449 5452 5453 5455 5457 5458 5460 5462 5464 5466 5468 5469 5471 5473 5474 5476 5478 5479 5481 5482 5484 5486 5487 5488 5490 5491 5493 5495 5496 5497 5499 5500 5502 5503 5504 5506 5507 5508 5510 5512 5514 5516 5516 5517 5518 5519 5520 5521 5523 5524 5525 5526 5527 5528 5529 5530 5531 5532 5533 5534 5536
5395 5397 5399 5402 5404 5407 5409 5411 5413 5416 5418 5420 5422 5424 5426 5428 5430 5432 5433 5435 5437 5439 5440 5442 5444 5446 5447 5449 5451 5453 5455 5457 5458 5460 5462 5464 5466 5468 5469 5471 5472 5474 5475 5477 5478 5480 5482 5483 5484 5486 5487 5489 5490 5491 5493 5494 5496 5498 5499 5500 5502 5503 5504 5506 5508 5510 5510 5511 5512 5513 5515 5516 5517 5518 5519 5521 5522 5523 5524 5525 5526 5527 5528 5529 5530 5532
5391 5393 5396 5398 5401 5403 5405 5407 5410 5412 5415 5417 5419 5421 5423 5424 5426 5428 5430 5432 5433 5435 5437 5438 5440 5442 5443 5445 5447 5449 5451 5453 5455 5457 5459 5461 5462 5464 5466 5467 5469 5470 5472 5473 5474 5476 5478 5479 5480 5482 5483 5485 5486 5487 5489 5490 5492 5493 5495 5496 5498 5499 5500 5502 5504 5505 5505 5507 5508 5509 5510 5512 5513 5514 5515 5517 5518 5519 5520 5521 5522 5523 5524 5525 5527 5528
5388 5390 5392 5394 5397 5399 5401 5404 5406 5409 5411 5413 5415 5417 5419 5421 5423 5424 5426 5428 5430 5431 5433 5435 5437 5438 5440 5442 5444 5446 5448 5449 5452 5453 5455 5457 5459 5461 5462 5464 5465 5467 5468 5470 5471 5473 5474 5475 5476 5478 5480 5481 5482 5483 5485 5486 5488 5489 5491 5492 5493 5495 5496 5498 5499 5500 5501 5503 5503 5505 5506 5508 5509 5510 5511 5513 5514 5515 5516 5517 5518 5519 5520 5522 5523 5524
5383 5386 5388 5391 5393 5396 5398 5400 5403 5405 5407 5409 5411 5413 5415 5417 5419 5421 5423 5424 5426 5428 5429 5431 5433 5434 5436 5438 5440 5442 5444 5446 5448 5450 5452 5453 5455 5457 5459 5460 5462 5463 5465 5466 5468 5469 5470 5471 5473 5474 5475 5477 5478 5479 5481 5483 5484 5485 5486 5488 5489 5491 5492 5493 5494 5496 5497 5498 5499 5501 5502 5503 5505 5506 5508 5509 5511 5512 5513 5513 5514 5515 5517 5518 5519 5520
5379 5382 5384 5387 5389 5392 5394 5397 5399 5401 5403 5406 5408 5410 5412 5413 5415 5417 5419 5420 5422 5424 5426 5428 5429 5431 5433 5435 5437 5439 5441 5443 5444 5447 5448 5450 5452 5453 5455 5457 5458 5460 5461 5463 5464 5465 5466 5468 5469 5470 5471 5473 5474 5475 5477 5478 5480 5481 5482 5483 5485 5486 5487 5488 5490 5491 5492 5493 5495 5497 5498 5499 5501 5503 5504 5506 5507 5508 5509 5510 5511 5512 5513 5514 5515 5517
5375 5378 5380 5383 5386 5388 5391 5393 5395 5398 5400 5402 5404 5406 5408 5410 5411 5413 5415 5417 5419 5420 5422 5424 5426 5428 5429 5431 5433 5435 5437 5439 5441 5443 5445 5447 5448 5450 5452 5453 5454 5456 5458 5459 5460 5462 5463 5464 5465 5466 5468 5469 5470 5472 5473 5475 5476 5477 5478 5479 5480 5481 5483 5484 5485 5487 5488 5489 5491 5493 5494 5496 5498 5499 5501 5502 5503 5504 5506 5507 5507 5508 5509 5510 5512 5513
5372 5374 5377 5379 5382 5384 5387 5389 5392 5394 5396 5398 5400 5403 5404 5406 5408 5409 5411 5413 5415 5417 5419 5421 5423 5424 5426 5428 5430 5432 5434 5436 5438 5440 5442 5443 5445 5446 5448 5449 5451 5452 5454 5455 5456 5458 5459 5460 5462 5463 5464 5466 5467 5468 5469 5471 5472 5473 5474 5475 5476 5477 5478 5479 5481 5483 5484 5486 5487 5489 5491 5492 5494 5495 5497 5498 5499 5501 5502 5503 5504 5505 5506 5507 5508 5510